Flag for Germany Weather past 2 weeks in Achim, Lower Saxony, Germany

50 °F

Light rain. Partly sunny.

Feels Like: 44 °F
Forecast: 41 / 46 °F
Wind: 20 mph from Southwest

Location: Bremen Airport

Current Time: Nov 29, 2015 at 4:16:46 PM

Latest Report: Nov 29, 2015 at 3:20 PM

Visibility: N/A

Pressure: 29.56 "Hg

Humidity: 82%

Dew point: 45 °F

Location of AchimLocation

Historic Weather in Achim — Graph


Achim temperature yesterday

Maximum temperature yesterday: 45 °F (at 11:20 AM)
Minimum temperature yesterday: 37 °F (at 4:50 AM)
Average temperature yesterday: 42 °F

Past Weeks' High & Low Weather Summary

High57 °F (Nov 15, 10:20 AM)100% (Nov 15, 1:50 AM)30.18 "Hg (Nov 15, 1:50 AM)
Low28 °F (Nov 22, 12:20 AM)57% (Nov 23, 1:20 PM)29.33 "Hg (Nov 21, 3:20 AM)
Average44 °F88%29.74 "Hg
* Reported Nov 14 2:20 PM — Nov 29 2:50 PM, Achim, Weather by CustomWeather, © 2015

Note: Actual official high and low records may vary slightly from our data, if they occured in-between our weather recording intervals... More about our weather records


Achim weather history for previous 24 hours

Time TempWeatherWind HumidityBarometerVisibility
2:50 PM
Sun, Nov 29
50 °FPartly sunny.20 mph82%29.59 "HgN/A
2:20 PM50 °FBroken clouds.20 mph82%29.59 "HgN/A
1:50 PM50 °FPartly sunny.17 mph82%29.62 "HgN/A
1:20 PM48 °FPartly sunny.18 mph87%29.62 "HgN/A
12:50 PM48 °FPartly sunny.20 mph87%29.62 "HgN/A
12:20 PM48 °FBroken clouds.18 mph82%29.62 "HgN/A
11:50 AM48 °FBroken clouds.18 mph82%29.65 "HgN/A
11:20 AM48 °FLight rain. Broken clouds.16 mph82%29.65 "HgN/A
10:20 AM48 °FLight rain. Partly sunny.17 mph82%29.65 "HgN/A
9:50 AM48 °FBroken clouds.17 mph87%29.65 "HgN/A
9:20 AM48 °FBroken clouds.17 mph82%29.62 "HgN/A
8:50 AM46 °FBroken clouds.18 mph87%29.62 "HgN/A
7:50 AM46 °FPartly cloudy.17 mph87%29.62 "HgN/A
7:20 AM46 °FPassing clouds.16 mph87%29.62 "HgN/A
6:50 AM46 °FPassing clouds.16 mph87%29.62 "HgN/A
6:20 AM46 °FPassing clouds.16 mph87%29.59 "HgN/A
5:20 AM45 °FPassing clouds.18 mph93%29.62 "HgN/A
4:50 AM45 °FPassing clouds.20 mph87%29.59 "HgN/A
4:20 AM45 °FPassing clouds.18 mph87%29.59 "HgN/A
3:50 AM45 °FPassing clouds.17 mph87%29.62 "HgN/A
3:20 AM45 °FClear.21 mph87%29.62 "Hg10 mi
2:50 AM45 °FClear.23 mph87%29.62 "Hg10 mi
2:20 AM43 °FClear.18 mph93%29.62 "Hg10 mi
1:50 AM43 °FClear.18 mph87%29.62 "Hg10 mi
12:50 AM43 °FLight rain. Passing clouds.17 mph87%29.65 "HgN/A
12:20 AM43 °FQuite cool.18 mph87%29.65 "HgN/A
11:50 PM
Sat, Nov 28
43 °FLight rain. Passing clouds.21 mph87%29.68 "HgN/A
11:20 PM43 °FLight rain. Passing clouds.18 mph81%29.68 "HgN/A
10:50 PM43 °FLight rain. Passing clouds.20 mph81%29.71 "HgN/A
10:20 PM43 °FPassing clouds.17 mph76%29.74 "HgN/A
9:20 PM41 °FLight rain. Partly cloudy.16 mph81%29.77 "HgN/A
8:50 PM41 °FLight rain. Clear.16 mph81%29.77 "HgN/A
8:20 PM41 °FClear.15 mph81%29.80 "Hg10 mi
7:50 PM41 °FClear.16 mph81%29.80 "Hg10 mi
7:20 PM41 °FClear.14 mph81%29.80 "Hg10 mi
6:50 PM41 °FClear.14 mph81%29.80 "Hg10 mi
6:20 PM41 °FClear.12 mph81%29.83 "Hg10 mi
5:50 PM41 °FClear.13 mph81%29.83 "Hg10 mi
5:20 PM41 °FPassing clouds.13 mph81%29.83 "HgN/A
4:50 PM41 °FPassing clouds.10 mph81%29.83 "HgN/A
4:20 PM41 °FPassing clouds.14 mph81%29.83 "HgN/A
Weather by CustomWeather, © 2015

See weather overviewHow to use our weather pages